Weather History for EGUL - June, 2013

Change the Weather History Date:

Sunday, June 23, 2013

  Actual Average (EGSC) Record (EGSC)
Temperature  
Mean Temperature 59 °F -  
Max Temperature 64 °F 66 °F 86 °F (2005)
Min Temperature 54 °F 55 °F 51 °F (2006)
Degree Days  
Heating Degree Days 6    
Growing Degree Days 9 (Base 50)    
Moisture  
Dew Point 51 °F    
Average Humidity 75    
Maximum Humidity 94    
Minimum Humidity 62    
Precipitation  
Precipitation 0.00 in - - ()
Sea Level Pressure  
Sea Level Pressure 29.70 in    
Wind  
Wind Speed 17 mph ()    
Max Wind Speed 28 mph    
Max Gust Speed 34 mph    
Visibility 6.2 miles    
Events Rain    
Averages and records for this station are not official NWS values.
T = Trace of Precipitation, MM = Missing Value Source: Averaged Metar Reports

Daily Weather History Graph

Daily Weather History Graph

Search for Another Location

Airport or City:

Trip Planner

Search our weather history database for the weather conditions in past years. The results will help you decide how hot, cold, wet, or windy it might be!

Date:

Astronomy

Jun. 23, 2013 Rise Set
Actual Time 4:35 AM BST 9:24 PM BST
Civil Twilight 3:45 AM BST 10:14 PM BST
Nautical Twilight 2:23 AM BST 11:36 PM BST
Astronomical Twilight Sun does not rise Sun does not rise
Moon 9:10 PM BST (6/23) 4:46 AM BST (6/23)
Length of Visible Light 18h 28m
Length of Day
16h 48m
Full, 100% of the Moon is Illuminated
Jun 23
Full
Jun 23
Full
Jun 30
Last Quarter
Jul 8
New
Jul 16
First Quarter

Hourly Weather History & Observations

Time (BST) Temp. Dew Point Humidity Pressure Visibility Wind Dir Wind Speed Gust Speed Precip Events Conditions
12:58 AM 56.5 °F 51.4 °F 83% 29.60 in 6.2 mi SSW 16.1 mph - N/A   Overcast
1:58 AM 54.7 °F 51.3 °F 88% 29.60 in 6.2 mi SW 15.0 mph - N/A   Partly Cloudy
2:18 AM 55.4 °F 51.8 °F 88% 29.59 in 6.2 mi SSW 17.3 mph - N/A   Mostly Cloudy
2:19 AM 55.4 °F 51.8 °F 88% 29.58 in 6.2 mi SW 16.1 mph - N/A   Mostly Cloudy
2:21 AM 55.4 °F 51.8 °F 88% 29.58 in 6.2 mi SW 16.1 mph - N/A   Scattered Clouds
2:24 AM 55.4 °F 51.8 °F 88% 29.58 in 6.2 mi SSW 15.0 mph - N/A   Mostly Cloudy
2:36 AM 55.4 °F 51.8 °F 88% 29.58 in 6.2 mi SSW 12.7 mph - N/A   Scattered Clouds
2:37 AM 55.4 °F 51.8 °F 88% 29.58 in 6.2 mi SSW 13.8 mph - N/A   Mostly Cloudy
2:42 AM 55.4 °F 51.8 °F 88% 29.58 in 6.2 mi SSW 12.7 mph - N/A   Mostly Cloudy
2:58 AM 54.7 °F 51.6 °F 89% 29.60 in 6.2 mi SW 13.8 mph - N/A   Mostly Cloudy
3:58 AM 55.0 °F 52.0 °F 89% 29.61 in 6.2 mi SW 13.8 mph - N/A   Overcast
4:58 AM 55.4 °F 52.3 °F 89% 29.61 in 6.2 mi SW 16.1 mph - N/A   Overcast
5:13 AM 55.4 °F 51.8 °F 88% 29.61 in 6.2 mi SW 16.1 mph - N/A   Light Drizzle
5:21 AM 55.4 °F 51.8 °F 88% 29.61 in 6.2 mi SW 15.0 mph - N/A   Mostly Cloudy
5:48 AM 55.4 °F 53.6 °F 94% 29.61 in 6.2 mi SW 16.1 mph - N/A   Mostly Cloudy
5:58 AM 55.9 °F 52.9 °F 89% 29.62 in 6.2 mi SW 16.1 mph - 0.00 in   Mostly Cloudy
6:15 AM 55.4 °F 53.6 °F 94% 29.62 in 6.2 mi SW 15.0 mph - N/A   Overcast
6:58 AM 57.7 °F 53.1 °F 84% 29.64 in 6.2 mi WSW 18.4 mph - N/A   Scattered Clouds
7:20 AM 59.0 °F 51.8 °F 77% 29.63 in 6.2 mi WSW 19.6 mph - N/A   Mostly Cloudy
7:22 AM 59.0 °F 51.8 °F 77% 29.63 in 6.2 mi WSW 18.4 mph - N/A   Scattered Clouds
7:58 AM 59.0 °F 51.6 °F 76% 29.65 in 6.2 mi SW 19.6 mph 24.2 mph N/A   Mostly Cloudy
8:20 AM 59.0 °F 51.8 °F 77% 29.64 in 6.2 mi WSW 20.7 mph 27.6 mph N/A   Mostly Cloudy
8:21 AM 59.0 °F 51.8 °F 77% 29.64 in 6.2 mi WSW 23.0 mph 27.6 mph N/A   Scattered Clouds
8:23 AM 59.0 °F 51.8 °F 77% 29.64 in 6.2 mi WSW 23.0 mph 27.6 mph N/A   Mostly Cloudy
8:25 AM 59.0 °F 51.8 °F 77% 29.65 in 6.2 mi WSW 20.7 mph - N/A   Scattered Clouds
8:26 AM 59.0 °F 51.8 °F 77% 29.64 in 6.2 mi WSW 20.7 mph - N/A   Mostly Cloudy
8:58 AM 59.2 °F 51.4 °F 75% 29.67 in 6.2 mi WSW 17.3 mph 24.2 mph N/A   Mostly Cloudy
9:02 AM 59.0 °F 51.8 °F 77% 29.66 in 6.2 mi West 18.4 mph - N/A   Mostly Cloudy
9:45 AM 60.8 °F 51.8 °F 72% 29.67 in 6.2 mi West 21.9 mph 28.8 mph N/A   Mostly Cloudy
9:49 AM 60.8 °F 51.8 °F 72% 29.67 in 6.2 mi West 19.6 mph 26.5 mph N/A   Mostly Cloudy
9:58 AM 60.8 °F 51.1 °F 70% 29.68 in 6.2 mi West 23.0 mph 28.8 mph N/A   Overcast
10:29 AM 60.8 °F 50.0 °F 68% 29.68 in 6.2 mi West 19.6 mph 25.3 mph N/A   Mostly Cloudy
10:58 AM 62.1 °F 50.2 °F 65% 29.70 in 6.2 mi West 17.3 mph 25.3 mph N/A   Mostly Cloudy
11:20 AM 62.6 °F 50.0 °F 63% 29.69 in 6.2 mi West 21.9 mph 31.1 mph N/A   Light Drizzle
11:26 AM 60.8 °F 50.0 °F 68% 29.69 in 6.2 mi West 18.4 mph 31.1 mph N/A   Mostly Cloudy
11:39 AM 62.6 °F 50.0 °F 63% 29.69 in 6.2 mi WSW 17.3 mph - N/A Rain Light Rain
11:49 AM 62.6 °F 51.8 °F 68% 29.69 in 6.2 mi WSW 20.7 mph 27.6 mph N/A   Mostly Cloudy
11:52 AM 62.6 °F 51.8 °F 68% 29.69 in 6.2 mi West 24.2 mph - N/A Rain Light Rain
11:58 AM 61.2 °F 52.0 °F 72% 29.70 in 6.2 mi West 21.9 mph 28.8 mph 0.00 in Rain Light Rain
12:01 PM 60.8 °F 51.8 °F 72% 29.69 in 6.2 mi West 18.4 mph 26.5 mph N/A   Mostly Cloudy
12:58 PM 62.2 °F 50.5 °F 65% 29.72 in 6.2 mi West 21.9 mph 29.9 mph 0.00 in   Mostly Cloudy
1:35 PM 62.6 °F 51.8 °F 68% 29.71 in 6.2 mi WSW 20.7 mph 29.9 mph N/A Rain Light Rain
1:47 PM 62.6 °F 50.0 °F 63% 29.72 in 6.2 mi West 25.3 mph 31.1 mph N/A   Mostly Cloudy
1:58 PM 63.9 °F 50.7 °F 62% 29.73 in 6.2 mi West 24.2 mph 32.2 mph 0.00 in   Mostly Cloudy
2:32 PM 64.4 °F 51.8 °F 64% 29.73 in 6.2 mi West 23.0 mph 31.1 mph N/A   Mostly Cloudy
2:38 PM 64.4 °F 51.8 °F 64% 29.73 in 6.2 mi West 23.0 mph 33.4 mph N/A   Mostly Cloudy
2:58 PM 64.0 °F 51.3 °F 63% 29.75 in 6.2 mi West 27.6 mph 34.5 mph N/A   Mostly Cloudy
3:17 PM 62.6 °F 51.8 °F 68% 29.75 in 6.2 mi West 25.3 mph 33.4 mph N/A   Mostly Cloudy
3:18 PM 62.6 °F 51.8 °F 68% 29.75 in 6.2 mi West 26.5 mph 33.4 mph N/A   Mostly Cloudy
3:58 PM 63.9 °F 51.4 °F 64% 29.77 in 6.2 mi West 20.7 mph - N/A   Mostly Cloudy
4:18 PM 62.6 °F 51.8 °F 68% 29.76 in 6.2 mi West 23.0 mph 31.1 mph N/A   Light Drizzle
4:28 PM 62.6 °F 51.8 °F 68% 29.76 in 6.2 mi West 21.9 mph 31.1 mph N/A   Overcast
4:35 PM 62.6 °F 51.8 °F 68% 29.77 in 6.2 mi West 20.7 mph - N/A Rain Light Rain
4:45 PM 60.8 °F 53.6 °F 77% 29.77 in 6.2 mi West 20.7 mph 26.5 mph N/A   Mostly Cloudy
4:58 PM 62.4 °F 53.1 °F 71% 29.78 in 6.2 mi West 23.0 mph 28.8 mph 0.00 in   Scattered Clouds
5:58 PM 62.1 °F 52.2 °F 70% 29.80 in 6.2 mi West 19.6 mph 24.2 mph N/A   Overcast
6:58 PM 61.0 °F 48.6 °F 64% 29.82 in 6.2 mi West 19.6 mph 31.1 mph N/A   Overcast
7:58 PM 59.0 °F 47.5 °F 66% 29.84 in 6.2 mi West 17.3 mph 27.6 mph N/A   Overcast
8:58 PM 57.6 °F 47.1 °F 68% 29.88 in 6.2 mi West 16.1 mph - N/A   Overcast
9:42 PM 57.2 °F 46.4 °F 67% 29.88 in 6.2 mi West 18.4 mph 24.2 mph N/A   Overcast
9:58 PM 56.5 °F 46.9 °F 70% 29.90 in 6.2 mi West 17.3 mph - N/A   Overcast
10:58 PM 55.8 °F 46.8 °F 72% 29.92 in 6.2 mi West 15.0 mph - N/A   Overcast
11:55 PM 55.4 °F 46.4 °F 72% 29.93 in 6.2 mi WNW 18.4 mph - N/A   Overcast
11:58 PM 55.2 °F 46.4 °F 72% 29.94 in 6.2 mi WNW 17.3 mph - N/A   Overcast